Weather History for Wheeling, WV

Change the Weather History Date:

Saturday, December 7, 2013

  Actual Average Record
Temperature  
Mean Temperature 24 °F 35 °F  
Max Temperature 28 °F 42 °F 67 °F (2004)
Min Temperature 19 °F 29 °F 13 °F (2008)
Degree Days  
Heating Degree Days 41 30  
Month to date heating degree days 173 200  
Since 1 July heating degree days 1375 1328  
Cooling Degree Days 0    
Month to date cooling degree days 0  
Year to date cooling degree days 740  
Moisture  
Dew Point 19 °F    
Average Humidity 77    
Maximum Humidity 92    
Minimum Humidity 62    
Precipitation  
Precipitation 0.00 in 0.07 in 1.11 in (2012)
Month to date precipitation 1.56 0.56  
Sea Level Pressure  
Sea Level Pressure 30.45 in    
Wind  
Wind Speed 5 mph (NW)    
Max Wind Speed 12 mph    
Max Gust Speed 15 mph    
Visibility 10 miles    
Events      
T = Trace of Precipitation, MM = Missing Value Source: NWS Daily Summary

Daily Weather History Graph

Daily Weather History Graph

Search for Another Location

Airport:

Trip Planner

Search our weather history database for the weather conditions in past years. The results will help you decide how hot, cold, wet, or windy it might be!

Date:

Astronomy

Dec. 07, 2013 Rise Set
Actual Time 7:31 AM EST 4:56 PM EST
Civil Twilight 7:01 AM EST 5:27 PM EST
Nautical Twilight 6:27 AM EST 6:00 PM EST
Astronomical Twilight 5:54 AM EST 6:33 PM EST
Moon 11:15 AM EST (12/7) 10:36 PM EST (12/7)
Length of Visible Light 10h 25m
Length of Day
9h 24m
Waxing Crescent, 29% of the Moon is Illuminated
Dec 7
Waxing Crescent
Dec 9
First Quarter
Dec 17
Full
Dec 25
Last Quarter
Jan 1
New

Hourly Weather History & Observations

Time (EST) Temp. Windchill Dew Point Humidity Pressure Visibility Wind Dir Wind Speed Gust Speed Precip Events Conditions
12:21 AM 28.4 °F 19.1 °F 24.8 °F 86% 30.26 in 10.0 mi NNW 10.4 mph - N/A   Overcast
12:46 AM 28.4 °F 22.2 °F 24.8 °F 86% 30.26 in 10.0 mi NNW 5.8 mph - N/A   Overcast
12:53 AM 28.0 °F 21.7 °F 25.0 °F 88% 30.31 in 10.0 mi NNW 5.8 mph - N/A   Overcast
1:53 AM 27.0 °F 20.5 °F 24.1 °F 89% 30.33 in 10.0 mi NW 5.8 mph - N/A   Overcast
2:06 AM 26.6 °F 21.2 °F 24.8 °F 93% 30.28 in 10.0 mi NW 4.6 mph - N/A   Overcast
2:53 AM 27.0 °F 20.5 °F 24.1 °F 89% 30.35 in 10.0 mi NW 5.8 mph - N/A   Overcast
3:42 AM 26.6 °F 19.1 °F 23.0 °F 86% 30.32 in 10.0 mi NW 6.9 mph - N/A   Overcast
3:53 AM 27.0 °F 19.5 °F 23.0 °F 85% 30.37 in 10.0 mi NW 6.9 mph - N/A   Overcast
4:21 AM 26.6 °F 18.2 °F 23.0 °F 86% 30.33 in 10.0 mi NW 8.1 mph - N/A   Overcast
4:53 AM 27.0 °F 18.7 °F 23.0 °F 85% 30.39 in 10.0 mi NNW 8.1 mph - N/A   Overcast
5:13 AM 26.6 °F 20.0 °F 23.0 °F 86% 30.35 in 10.0 mi NW 5.8 mph - N/A   Overcast
5:53 AM 27.0 °F 19.5 °F 21.0 °F 78% 30.42 in 10.0 mi NNW 6.9 mph - N/A   Overcast
6:53 AM 26.1 °F 21.9 °F 21.0 °F 81% 30.46 in 10.0 mi NW 3.5 mph - N/A   Overcast
7:53 AM 25.0 °F 15.5 °F 21.0 °F 85% 30.50 in 10.0 mi WNW 9.2 mph - N/A   Overcast
12:53 PM 25.0 °F 20.7 °F 16.0 °F 69% 30.53 in 10.0 mi NW 3.5 mph - N/A   Unknown
1:53 PM 27.0 °F 19.5 °F 17.1 °F 66% 30.52 in 10.0 mi NW 6.9 mph - N/A   Scattered Clouds
2:05 PM 26.6 °F 17.5 °F 15.8 °F 64% 30.46 in 10.0 mi NW 9.2 mph - N/A   Mostly Cloudy
2:17 PM 28.4 °F 19.7 °F 15.8 °F 59% 30.46 in 10.0 mi NW 9.2 mph - N/A   Scattered Clouds
2:53 PM 27.0 °F 21.6 °F 15.1 °F 61% 30.52 in 10.0 mi Variable 4.6 mph - N/A   Clear
3:53 PM 27.0 °F 19.5 °F 15.1 °F 61% 30.53 in 10.0 mi WNW 6.9 mph - N/A   Partly Cloudy
4:53 PM 25.0 °F 19.3 °F 14.0 °F 63% 30.55 in 10.0 mi NW 4.6 mph - N/A   Clear
5:53 PM 23.0 °F 15.8 °F 14.0 °F 68% 30.58 in 10.0 mi NW 5.8 mph - N/A   Clear
6:53 PM 21.9 °F 14.5 °F 14.0 °F 72% 30.59 in 10.0 mi NNW 5.8 mph - N/A   Clear
7:53 PM 21.0 °F 13.4 °F 12.9 °F 71% 30.61 in 10.0 mi NNW 5.8 mph - N/A   Clear
8:53 PM 19.9 °F 14.9 °F 12.9 °F 74% 30.61 in 10.0 mi NNW 3.5 mph - N/A   Clear
9:53 PM 19.9 °F 14.9 °F 12.0 °F 71% 30.61 in 10.0 mi North 3.5 mph - N/A   Clear
10:53 PM 19.0 °F 12.3 °F 12.0 °F 74% 30.61 in 10.0 mi NNE 4.6 mph - N/A   Clear
11:53 PM 19.0 °F 10.0 °F 12.9 °F 77% 30.62 in 10.0 mi NNE 6.9 mph - N/A   Clear